TimeEDT,TemperatureF,Dew PointF,Humidity,Sea Level PressureIn,VisibilityMPH,Wind Direction,Wind SpeedMPH,Gust SpeedMPH,PrecipitationIn,Events,Conditions,WindDirDegrees,DateUTC
12:54 AM,46.0,37.9,73,30.14,10.0,SSE,4.6,-,N/A,,Clear,150,2013-03-31 04:54:00
1:54 AM,45.0,37.9,76,30.13,10.0,SSE,3.5,-,N/A,,Clear,160,2013-03-31 05:54:00
2:54 AM,44.1,37.9,79,30.12,10.0,South,6.9,-,N/A,,Clear,170,2013-03-31 06:54:00
3:54 AM,45.0,39.9,82,30.10,10.0,SSE,5.8,-,N/A,,Clear,150,2013-03-31 07:54:00
4:54 AM,46.0,41.0,83,30.08,10.0,SE,5.8,-,N/A,,Clear,130,2013-03-31 08:54:00
5:54 AM,46.0,41.0,83,30.06,10.0,ESE,5.8,-,N/A,,Clear,120,2013-03-31 09:54:00
6:54 AM,46.0,41.0,83,30.04,10.0,SE,9.2,-,N/A,,Clear,140,2013-03-31 10:54:00
7:54 AM,46.9,39.9,77,30.04,10.0,SE,12.7,-,N/A,,Clear,140,2013-03-31 11:54:00
8:54 AM,48.0,41.0,77,30.03,10.0,South,11.5,-,N/A,,Clear,170,2013-03-31 12:54:00
9:54 AM,48.9,42.1,77,30.00,10.0,South,8.1,-,N/A,,Overcast,170,2013-03-31 13:54:00
10:54 AM,51.1,43.0,74,29.98,10.0,SSE,11.5,-,N/A,,Clear,160,2013-03-31 14:54:00
11:54 AM,52.0,43.0,71,29.95,10.0,South,12.7,21.9,N/A,,Overcast,170,2013-03-31 15:54:00
12:54 PM,53.1,43.0,69,29.91,10.0,SSE,19.6,27.6,N/A,,Overcast,160,2013-03-31 16:54:00
1:54 PM,50.0,45.0,83,29.86,9.0,SSE,10.4,-,0.00,,Overcast,160,2013-03-31 17:54:00
2:13 PM,50.0,46.0,86,29.84,7.0,South,9.2,-,N/A,,Overcast,180,2013-03-31 18:13:00
2:54 PM,48.9,48.0,97,29.82,1.8,South,3.5,-,0.01,Rain,Light Rain,180,2013-03-31 18:54:00
3:04 PM,48.9,48.0,97,29.81,2.5,South,4.6,-,0.00,Rain,Light Rain,180,2013-03-31 19:04:00
3:14 PM,48.9,48.9,100,29.80,1.5,South,3.5,-,0.01,Rain,Light Rain,190,2013-03-31 19:14:00
3:47 PM,48.9,48.0,97,29.77,1.5,SE,6.9,-,0.03,Rain,Light Rain,130,2013-03-31 19:47:00
3:54 PM,48.0,48.0,100,29.78,1.0,SE,5.8,-,0.03,,Overcast,130,2013-03-31 19:54:00
4:21 PM,50.0,50.0,100,29.78,2.0,South,4.6,-,0.01,,Overcast,170,2013-03-31 20:21:00
4:30 PM,50.0,50.0,100,29.78,1.8,South,6.9,-,0.01,,Overcast,170,2013-03-31 20:30:00
4:54 PM,50.0,50.0,100,29.78,1.8,South,11.5,-,0.01,,Overcast,170,2013-03-31 20:54:00
5:54 PM,48.9,48.9,100,29.76,1.2,South,4.6,-,N/A,,Overcast,180,2013-03-31 21:54:00
6:19 PM,50.0,50.0,100,29.75,2.5,South,3.5,-,N/A,,Overcast,190,2013-03-31 22:19:00
6:26 PM,50.0,50.0,100,29.75,2.5,South,3.5,-,N/A,,Overcast,190,2013-03-31 22:26:00
6:37 PM,51.1,51.1,100,29.74,3.0,Variable,3.5,-,N/A,,Overcast,0,2013-03-31 22:37:00
6:54 PM,52.0,51.1,97,29.75,5.0,Variable,4.6,-,N/A,,Overcast,0,2013-03-31 22:54:00
7:43 PM,52.0,51.1,97,29.75,7.0,Variable,3.5,-,N/A,,Overcast,0,2013-03-31 23:43:00
7:54 PM,52.0,51.1,97,29.76,8.0,SW,3.5,-,N/A,,Overcast,230,2013-03-31 23:54:00
8:54 PM,52.0,50.0,93,29.76,9.0,West,3.5,-,N/A,,Mostly Cloudy,260,2013-04-01 00:54:00
9:10 PM,52.0,50.0,93,29.77,8.0,West,5.8,-,N/A,,Scattered Clouds,260,2013-04-01 01:10:00
9:54 PM,51.1,48.9,92,29.79,8.0,WSW,5.8,-,N/A,,Scattered Clouds,250,2013-04-01 01:54:00
10:54 PM,51.1,48.0,89,29.79,7.0,West,3.5,-,N/A,,Mostly Cloudy,260,2013-04-01 02:54:00
11:54 PM,48.9,48.0,97,29.79,6.0,Calm,Calm,-,N/A,,Partly Cloudy,0,2013-04-01 03:54:00